,,Stat5,,Stat1,,Stat2,,Stat3,,Stat4,,Wind1,,Wind1,
time,status,PA1M_AVG,status,PR1M_SUM,status,RH1M_AVG,status,SR1M_AVG,status,TA1M_AVG,status,W1dAve1m,status,W1sAve1m,
2003-01-20, 00:00:01,VALID,918.997,VALID,0,VALID,92.3477,VALID,0,VALID,19.9694,VALID,120,VALID,0.173353,
2003-01-20, 00:01:00,VALID,919.017,VALID,0,VALID,92.3109,VALID,-0.0509425,VALID,19.9759,VALID,120,VALID,0.198691,
2003-01-20, 00:02:00,VALID,919.019,VALID,0,VALID,92.307,VALID,0,VALID,19.9789,VALID,120,VALID,0.127056,
2003-01-20, 00:03:00,VALID,919.01,VALID,0,VALID,92.2842,VALID,-0.0339617,VALID,19.9856,VALID,185,VALID,0.258024,
2003-01-20, 00:04:00,VALID,919.009,VALID,0,VALID,92.2498,VALID,-0.0509425,VALID,19.9888,VALID,236,VALID,0.334329,
2003-01-20, 00:05:00,VALID,919.007,VALID,0,VALID,92.5143,VALID,-0.0679233,VALID,19.9692,VALID,251,VALID,0.363982,
2003-01-20, 00:06:00,VALID,919.008,VALID,0,VALID,92.9657,VALID,-0.0509425,VALID,19.9433,VALID,265,VALID,0.205128,
2003-01-20, 00:07:00,VALID,919,VALID,0,VALID,93.1399,VALID,-0.0509425,VALID,19.9371,VALID,267,VALID,0.2398,
2003-01-20, 00:08:00,VALID,918.98,VALID,0,VALID,93.3332,VALID,-0.0169808,VALID,19.9177,VALID,267,VALID,0.246995,
2003-01-20, 00:09:00,VALID,918.97,VALID,0,VALID,93.3905,VALID,-0.0169808,VALID,19.9113,VALID,267,VALID,0.247677,
2003-01-20, 00:10:00,VALID,918.965,VALID,0,VALID,93.5659,VALID,-0.0339617,VALID,19.876,VALID,267,VALID,0.193412,
2003-01-20, 00:11:00,VALID,918.967,VALID,0,VALID,93.7351,VALID,-0.0849042,VALID,19.8633,VALID,260,VALID,0.270433,
2003-01-20, 00:12:00,VALID,918.956,VALID,0,VALID,93.8566,VALID,-0.0679233,VALID,19.8143,VALID,254,VALID,0.318359,
2003-01-20, 00:13:00,VALID,918.956,VALID,0,VALID,93.9665,VALID,-0.0169808,VALID,19.7952,VALID,248,VALID,0.273026,
2003-01-20, 00:14:00,VALID,918.959,VALID,0,VALID,94.0034,VALID,-0.0679233,VALID,19.7728,VALID,183,VALID,0.23163,
2003-01-20, 00:15:00,VALID,918.957,VALID,0,VALID,94.1089,VALID,-0.0509425,VALID,19.7305,VALID,182,VALID,0.18533,
2003-01-20, 00:16:00,VALID,918.955,VALID,0,VALID,94.1966,VALID,-0.0679233,VALID,19.7146,VALID,162,VALID,0.227618,
2003-01-20, 00:17:00,VALID,918.949,VALID,0,VALID,94.2297,VALID,-0.0509425,VALID,19.7119,VALID,159,VALID,0.142475,
2003-01-20, 00:18:00,VALID,918.937,VALID,0,VALID,94.2475,VALID,-0.0849042,VALID,19.6883,VALID,155,VALID,0.183293,
2003-01-20, 00:19:00,VALID,918.918,VALID,0,VALID,94.259,VALID,-0.0849042,VALID,19.6947,VALID,155,VALID,0.290665,
2003-01-20, 00:20:00,VALID,918.905,VALID,0,VALID,94.1483,VALID,-0.0169808,VALID,19.6918,VALID,133,VALID,0.538851,
2003-01-20, 00:21:00,VALID,918.888,VALID,0,VALID,94.1115,VALID,-0.0509425,VALID,19.6853,VALID,140,VALID,0.792558,
2003-01-20, 00:22:00,VALID,918.886,VALID,0,VALID,94.0835,VALID,-0.101885,VALID,19.6985,VALID,124,VALID,0.778245,
2003-01-20, 00:23:00,VALID,918.894,VALID,0,VALID,94.072,VALID,-0.0509425,VALID,19.694,VALID,126,VALID,0.724559,
2003-01-20, 00:24:00,VALID,918.896,VALID,0,VALID,93.9779,VALID,0.0509425,VALID,19.7223,VALID,144,VALID,0.537454,
2003-01-20, 00:25:00,VALID,918.892,VALID,0,VALID,93.8317,VALID,0,VALID,19.7454,VALID,145,VALID,0.463816,
2003-01-20, 00:26:00,VALID,918.894,VALID,0,VALID,93.7745,VALID,0,VALID,19.7621,VALID,140,VALID,0.716639,
2003-01-20, 00:27:00,VALID,918.888,VALID,0,VALID,93.8203,VALID,0.0169808,VALID,19.7387,VALID,144,VALID,0.692925,
2003-01-20, 00:28:00,VALID,918.88,VALID,0,VALID,94.011,VALID,0,VALID,19.7231,VALID,160,VALID,0.820964,
2003-01-20, 00:29:00,VALID,918.869,VALID,0,VALID,94.0822,VALID,0.0339617,VALID,19.7266,VALID,159,VALID,0.538035,
2003-01-20, 00:30:00,VALID,918.864,VALID,0,VALID,94.0517,VALID,0.0339617,VALID,19.7159,VALID,180,VALID,0.516447,
2003-01-20, 00:31:00,VALID,918.838,VALID,0,VALID,94.0313,VALID,0,VALID,19.7134,VALID,179,VALID,0.374783,
2003-01-20, 00:32:00,VALID,918.825,VALID,0,VALID,94.0212,VALID,0.0509425,VALID,19.6903,VALID,162,VALID,0.386384,
2003-01-20, 00:33:00,VALID,918.826,VALID,0,VALID,94.0924,VALID,0.0169808,VALID,19.6806,VALID,175,VALID,0.390214,
2003-01-20, 00:34:00,VALID,918.825,VALID,0,VALID,94.1649,VALID,0.0169808,VALID,19.6783,VALID,167,VALID,0.32472,
2003-01-20, 00:35:00,VALID,918.825,VALID,0,VALID,94.2132,VALID,0.0509425,VALID,19.6649,VALID,178,VALID,0.444141,
2003-01-20, 00:36:00,VALID,918.807,VALID,0,VALID,94.2958,VALID,0.0169808,VALID,19.6353,VALID,187,VALID,0.397204,
2003-01-20, 00:37:00,VALID,918.813,VALID,0,VALID,94.4116,VALID,0.0169808,VALID,19.6159,VALID,187,VALID,0.309827,
2003-01-20, 00:38:00,VALID,918.813,VALID,0,VALID,94.4955,VALID,-0.0169808,VALID,19.5938,VALID,185,VALID,0.415665,
2003-01-20, 00:39:00,VALID,918.808,VALID,0,VALID,94.5743,VALID,-0.0509425,VALID,19.5786,VALID,168,VALID,0.489183,
2003-01-20, 00:40:00,VALID,918.801,VALID,0,VALID,94.6608,VALID,-0.0509425,VALID,19.5627,VALID,169,VALID,0.503806,
2003-01-20, 00:41:00,VALID,918.792,VALID,0,VALID,94.8312,VALID,-0.0679233,VALID,19.5431,VALID,165,VALID,0.52114,
2003-01-20, 00:42:00,VALID,918.777,VALID,0,VALID,94.8998,VALID,-0.0509425,VALID,19.5341,VALID,147,VALID,0.306055,
2003-01-20, 00:43:00,VALID,918.767,VALID,0,VALID,94.9558,VALID,-0.101885,VALID,19.5078,VALID,155,VALID,0.622613,
2003-01-20, 00:44:00,VALID,918.734,VALID,0,VALID,95.0283,VALID,-0.0849042,VALID,19.4817,VALID,150,VALID,0.610243,
2003-01-20, 00:45:00,VALID,918.714,VALID,0,VALID,95.1809,VALID,-0.0679233,VALID,19.4663,VALID,143,VALID,0.702914,
2003-01-20, 00:46:00,VALID,918.697,VALID,0,VALID,95.2686,VALID,-0.101885,VALID,19.4407,VALID,135,VALID,0.671669,
2003-01-20, 00:47:00,VALID,918.672,VALID,0,VALID,95.4263,VALID,-0.0339617,VALID,19.4044,VALID,141,VALID,0.849392,
2003-01-20, 00:48:00,VALID,918.663,VALID,0,VALID,95.5967,VALID,-0.0679233,VALID,19.3885,VALID,133,VALID,0.877323,
2003-01-20, 00:49:00,VALID,918.656,VALID,0,VALID,95.7607,VALID,-0.101885,VALID,19.3753,VALID,138,VALID,1.14063,
2003-01-20, 00:50:01,VALID,918.651,VALID,0,VALID,95.9159,VALID,-0.0849042,VALID,19.389,VALID,138,VALID,0.936266,
2003-01-20, 00:51:00,VALID,918.661,VALID,0,VALID,95.94,VALID,-0.101885,VALID,19.3629,VALID,137,VALID,0.81989,
2003-01-20, 00:52:00,VALID,918.628,VALID,0,VALID,95.9222,VALID,-0.101885,VALID,19.3631,VALID,112,VALID,0.713605,
2003-01-20, 00:53:00,VALID,918.617,VALID,0,VALID,96.0532,VALID,-0.0679233,VALID,19.3328,VALID,124,VALID,0.894141,
2003-01-20, 00:54:00,VALID,918.605,VALID,0,VALID,96.2477,VALID,-0.0679233,VALID,19.3457,VALID,128,VALID,0.856291,
2003-01-20, 00:55:00,VALID,918.601,VALID,0,VALID,96.2706,VALID,-0.0509425,VALID,19.3524,VALID,114,VALID,0.59375,
2003-01-20, 00:56:00,VALID,918.603,VALID,0,VALID,96.3762,VALID,-0.0169808,VALID,19.3751,VALID,126,VALID,1.2877,
2003-01-20, 00:57:00,VALID,918.58,VALID,0,VALID,96.4448,VALID,0,VALID,19.391,VALID,148,VALID,0.594367,
2003-01-20, 00:58:01,VALID,918.566,VALID,0,VALID,96.4779,VALID,-0.0679233,VALID,19.43,VALID,140,VALID,1.37835,
2003-01-20, 00:59:00,VALID,918.553,VALID,0,VALID,96.3838,VALID,-0.0169808,VALID,19.4715,VALID,122,VALID,1.68009,
2003-01-20, 01:00:00,VALID,918.527,VALID,0,VALID,96.188,VALID,-0.0169808,VALID,19.5036,VALID,113,VALID,0.896267,
2003-01-20, 01:01:01,VALID,918.529,VALID,0,VALID,96.0163,VALID,-0.0339617,VALID,19.5431,VALID,138,VALID,1.34776,
2003-01-20, 01:02:00,VALID,918.521,VALID,0,VALID,95.9235,VALID,-0.0339617,VALID,19.5625,VALID,140,VALID,1.04287,
2003-01-20, 01:03:00,VALID,918.509,VALID,0,VALID,95.8408,VALID,-0.0339617,VALID,19.5722,VALID,150,VALID,1.04626,
2003-01-20, 01:04:00,VALID,918.488,VALID,0,VALID,95.8014,VALID,-0.0339617,VALID,19.5881,VALID,141,VALID,1.60485,
2003-01-20, 01:05:00,VALID,918.482,VALID,0,VALID,95.7556,VALID,0,VALID,19.6013,VALID,136,VALID,1.38007,
2003-01-20, 01:06:00,VALID,918.481,VALID,0,VALID,95.6743,VALID,-0.0169808,VALID,19.6043,VALID,142,VALID,1.07639,
2003-01-20, 01:07:00,VALID,918.459,VALID,0,VALID,95.6272,VALID,-0.0169808,VALID,19.6072,VALID,142,VALID,1.28019,
2003-01-20, 01:08:00,VALID,918.455,VALID,0,VALID,95.5916,VALID,-0.0169808,VALID,19.6107,VALID,145,VALID,0.907072,
2003-01-20, 01:09:01,VALID,918.447,VALID,0,VALID,95.6196,VALID,-0.0339617,VALID,19.6043,VALID,133,VALID,1.10317,
2003-01-20, 01:10:00,VALID,918.441,VALID,0,VALID,95.6132,VALID,-0.0169808,VALID,19.6105,VALID,120,VALID,1.09054,
2003-01-20, 01:11:01,VALID,918.441,VALID,0,VALID,95.6501,VALID,-0.0169808,VALID,19.5913,VALID,124,VALID,0.95038,
2003-01-20, 01:12:00,VALID,918.428,VALID,0,VALID,95.7111,VALID,0,VALID,19.5811,VALID,132,VALID,1.41632,
2003-01-20, 01:13:01,VALID,918.435,VALID,0,VALID,95.6895,VALID,0,VALID,19.5782,VALID,135,VALID,1.1228,
2003-01-20, 01:14:00,VALID,918.425,VALID,0,VALID,95.6921,VALID,0,VALID,19.5816,VALID,143,VALID,1.47656,
2003-01-20, 01:15:00,VALID,918.422,VALID,0,VALID,95.687,VALID,0.0169808,VALID,19.5878,VALID,131,VALID,1.13764,
2003-01-20, 01:16:00,VALID,918.388,VALID,0,VALID,95.6412,VALID,0,VALID,19.6013,VALID,133,VALID,1.08306,
2003-01-20, 01:17:00,VALID,918.373,VALID,0,VALID,95.6247,VALID,-0.0169808,VALID,19.601,VALID,127,VALID,1.20165,
2003-01-20, 01:18:00,VALID,918.358,VALID,0,VALID,95.5802,VALID,-0.0339617,VALID,19.6105,VALID,135,VALID,1.09614,
2003-01-20, 01:19:00,VALID,918.341,VALID,0,VALID,95.5318,VALID,-0.0509425,VALID,19.6174,VALID,139,VALID,0.966146,
2003-01-20, 01:20:01,VALID,918.342,VALID,0,VALID,95.514,VALID,-0.0339617,VALID,19.6075,VALID,130,VALID,1.40399,
2003-01-20, 01:21:00,VALID,918.326,VALID,0,VALID,95.4886,VALID,-0.0339617,VALID,19.6077,VALID,121,VALID,1.14659,
2003-01-20, 01:22:00,VALID,918.34,VALID,0,VALID,95.514,VALID,-0.0169808,VALID,19.601,VALID,128,VALID,0.9477,
2003-01-20, 01:23:00,VALID,918.342,VALID,0,VALID,95.5611,VALID,-0.0169808,VALID,19.6018,VALID,126,VALID,1.06942,
2003-01-20, 01:24:01,VALID,918.35,VALID,0,VALID,95.5738,VALID,0,VALID,19.6047,VALID,136,VALID,1.7169,
2003-01-20, 01:25:00,VALID,918.367,VALID,0,VALID,95.5891,VALID,0,VALID,19.6043,VALID,132,VALID,1.27885,
2003-01-20, 01:26:01,VALID,918.357,VALID,0,VALID,95.5903,VALID,-0.0339617,VALID,19.6142,VALID,133,VALID,1.41445,
2003-01-20, 01:27:00,VALID,918.357,VALID,0,VALID,95.5649,VALID,-0.0169808,VALID,19.6269,VALID,131,VALID,1.52899,
2003-01-20, 01:28:01,VALID,918.355,VALID,0,VALID,95.5382,VALID,-0.0169808,VALID,19.6333,VALID,118,VALID,0.909745,
2003-01-20, 01:29:00,VALID,918.351,VALID,0,VALID,95.5217,VALID,-0.0339617,VALID,19.6366,VALID,147,VALID,1.77444,
2003-01-20, 01:30:00,VALID,918.349,VALID,0,VALID,95.5229,VALID,-0.0509425,VALID,19.654,VALID,135,VALID,1.41727,
2003-01-20, 01:31:00,VALID,918.342,VALID,0,VALID,95.4784,VALID,0,VALID,19.6495,VALID,134,VALID,1.53566,
2003-01-20, 01:32:00,VALID,918.331,VALID,0,VALID,95.4276,VALID,-0.0169808,VALID,19.6328,VALID,132,VALID,1.16245,
2003-01-20, 01:33:01,VALID,918.325,VALID,0,VALID,95.3513,VALID,-0.0169808,VALID,19.6525,VALID,132,VALID,1.44043,
2003-01-20, 01:34:01,VALID,918.332,VALID,0,VALID,95.2775,VALID,-0.0169808,VALID,19.6691,VALID,136,VALID,1.50326,
2003-01-20, 01:35:00,VALID,918.323,VALID,0,VALID,95.219,VALID,-0.0169808,VALID,19.6753,VALID,141,VALID,1.40126,
2003-01-20, 01:36:00,VALID,918.314,VALID,0,VALID,95.1821,VALID,-0.0169808,VALID,19.6883,VALID,143,VALID,1.42082,
2003-01-20, 01:37:00,VALID,918.315,VALID,0,VALID,95.1046,VALID,0,VALID,19.6913,VALID,147,VALID,1.65275,
2003-01-20, 01:38:00,VALID,918.307,VALID,0,VALID,95.0372,VALID,-0.0339617,VALID,19.7179,VALID,139,VALID,0.637153,
2003-01-20, 01:39:01,VALID,918.302,VALID,0,VALID,94.9622,VALID,-0.118866,VALID,19.7186,VALID,139,VALID,1.33488,
2003-01-20, 01:40:00,VALID,918.292,VALID,0,VALID,94.9405,VALID,-0.0849042,VALID,19.7288,VALID,149,VALID,0.889106,
2003-01-20, 01:41:01,VALID,918.283,VALID,0,VALID,94.9634,VALID,-0.118866,VALID,19.7149,VALID,140,VALID,1.01439,
2003-01-20, 01:42:01,VALID,918.271,VALID,0,VALID,94.9507,VALID,-0.101885,VALID,19.7315,VALID,161,VALID,0.658784,
2003-01-20, 01:43:00,VALID,918.257,VALID,0,VALID,94.8553,VALID,-0.101885,VALID,19.7318,VALID,137,VALID,0.889291,
2003-01-20, 01:44:00,VALID,918.248,VALID,0,VALID,94.8007,VALID,-0.118866,VALID,19.7251,VALID,144,VALID,0.837891,
2003-01-20, 01:45:01,VALID,918.238,VALID,0,VALID,94.7066,VALID,-0.118866,VALID,19.7445,VALID,154,VALID,1.06106,
2003-01-20, 01:46:00,VALID,918.224,VALID,0,VALID,94.6532,VALID,-0.101885,VALID,19.7574,VALID,182,VALID,0.583615,
2003-01-20, 01:47:00,VALID,918.226,VALID,0,VALID,94.5616,VALID,-0.101885,VALID,19.7542,VALID,169,VALID,1.0498,
2003-01-20, 01:48:00,VALID,918.218,VALID,0,VALID,94.4484,VALID,-0.101885,VALID,19.7673,VALID,148,VALID,1.05037,
2003-01-20, 01:49:01,VALID,918.197,VALID,0,VALID,94.3925,VALID,-0.101885,VALID,19.7671,VALID,172,VALID,0.757143,
2003-01-20, 01:50:00,VALID,918.193,VALID,0,VALID,94.3365,VALID,-0.118866,VALID,19.7706,VALID,180,VALID,0.617188,
2003-01-20, 01:51:00,VALID,918.172,VALID,0,VALID,94.3225,VALID,-0.101885,VALID,19.7641,VALID,173,VALID,0.755859,
2003-01-20, 01:52:01,VALID,918.167,VALID,0,VALID,94.2933,VALID,-0.135847,VALID,19.7604,VALID,161,VALID,0.367188,
2003-01-20, 01:53:00,VALID,918.148,VALID,0,VALID,94.3251,VALID,-0.0679233,VALID,19.7537,VALID,89,VALID,0.499399,
2003-01-20, 01:54:00,VALID,918.125,VALID,0,VALID,94.3353,VALID,0,VALID,19.7422,VALID,48,VALID,0.525699,
2003-01-20, 01:55:00,VALID,918.106,VALID,0,VALID,94.3823,VALID,0,VALID,19.7363,VALID,31,VALID,0.380551,
2003-01-20, 01:56:00,VALID,918.078,VALID,0,VALID,94.3899,VALID,0.0169808,VALID,19.7203,VALID,48,VALID,0.289696,
2003-01-20, 01:57:00,VALID,918.05,VALID,0,VALID,94.4891,VALID,0.0169808,VALID,19.6704,VALID,54,VALID,0.594184,
2003-01-20, 01:58:00,VALID,918.039,VALID,0,VALID,94.5705,VALID,0.0169808,VALID,19.6649,VALID,46,VALID,0.442145,
2003-01-20, 01:59:00,VALID,918.022,VALID,0,VALID,94.6417,VALID,0.0339617,VALID,19.6415,VALID,70,VALID,0.292352,
2003-01-20, 02:00:01,VALID,918.018,VALID,0,VALID,94.671,VALID,0.0679233,VALID,19.6455,VALID,32,VALID,0.338341,
2003-01-20, 02:01:00,VALID,918.014,VALID,0,VALID,94.7714,VALID,0.0169808,VALID,19.6127,VALID,32,VALID,0.128005,
2003-01-20, 02:02:01,VALID,918.01,VALID,0,VALID,94.7816,VALID,0.0339617,VALID,19.5928,VALID,33,VALID,0.423775,
2003-01-20, 02:03:00,VALID,918.002,VALID,0,VALID,94.882,VALID,0.0169808,VALID,19.5707,VALID,33,VALID,0.0692845,
2003-01-20, 02:04:01,VALID,917.984,VALID,0,VALID,95.041,VALID,0.0339617,VALID,19.555,VALID,34,VALID,0,
2003-01-20, 02:05:00,VALID,917.968,VALID,0,VALID,95.191,VALID,0.0509425,VALID,19.5416,VALID,41,VALID,0.437099,
2003-01-20, 02:06:00,VALID,917.966,VALID,0,VALID,95.3207,VALID,0.0679233,VALID,19.5257,VALID,56,VALID,0.534697,
2003-01-20, 02:07:00,VALID,917.967,VALID,0,VALID,95.5,VALID,0.0509425,VALID,19.5155,VALID,81,VALID,0.791941,
2003-01-20, 02:08:00,VALID,917.956,VALID,0,VALID,95.6361,VALID,0.0169808,VALID,19.5257,VALID,63,VALID,1.0416,
2003-01-20, 02:09:00,VALID,917.936,VALID,0,VALID,95.7213,VALID,-0.0509425,VALID,19.5337,VALID,56,VALID,0.818576,
2003-01-20, 02:10:00,VALID,917.919,VALID,0,VALID,95.8243,VALID,-0.0679233,VALID,19.5302,VALID,65,VALID,0.371094,
2003-01-20, 02:11:01,VALID,917.909,VALID,0,VALID,95.8879,VALID,-0.0509425,VALID,19.5237,VALID,84,VALID,0.746094,
2003-01-20, 02:12:01,VALID,917.904,VALID,0,VALID,95.9082,VALID,-0.0509425,VALID,19.5105,VALID,90,VALID,0.535773,
2003-01-20, 02:13:01,VALID,917.884,VALID,0,VALID,95.9833,VALID,-0.0509425,VALID,19.5272,VALID,80,VALID,0.836589,
2003-01-20, 02:14:00,VALID,917.87,VALID,0,VALID,95.9883,VALID,-0.0679233,VALID,19.5105,VALID,66,VALID,0.821875,
2003-01-20, 02:15:00,VALID,917.865,VALID,0,VALID,95.9794,VALID,-0.0679233,VALID,19.5008,VALID,90,VALID,0.988281,
2003-01-20, 02:16:00,VALID,917.838,VALID,0,VALID,95.996,VALID,-0.0849042,VALID,19.5043,VALID,89,VALID,0.726563,
2003-01-20, 02:17:01,VALID,917.817,VALID,0,VALID,96.0379,VALID,-0.0849042,VALID,19.5041,VALID,74,VALID,0.577539,
2003-01-20, 02:18:00,VALID,917.804,VALID,0,VALID,96.0863,VALID,-0.0509425,VALID,19.5041,VALID,108,VALID,0.89412,
2003-01-20, 02:19:01,VALID,917.796,VALID,0,VALID,96.1117,VALID,-0.0339617,VALID,19.5041,VALID,110,VALID,1.16324,
2003-01-20, 02:20:00,VALID,917.787,VALID,0,VALID,96.057,VALID,-0.0849042,VALID,19.5242,VALID,133,VALID,0.950521,
2003-01-20, 02:21:00,VALID,917.788,VALID,0,VALID,95.9794,VALID,0,VALID,19.5138,VALID,111,VALID,0.776242,
2003-01-20, 02:22:01,VALID,917.8,VALID,0,VALID,95.8243,VALID,-0.0679233,VALID,19.5304,VALID,104,VALID,0.883013,
2003-01-20, 02:23:00,VALID,917.808,VALID,0,VALID,95.6806,VALID,-0.0679233,VALID,19.52,VALID,132,VALID,0.90625,
2003-01-20, 02:24:01,VALID,917.803,VALID,0,VALID,95.5128,VALID,0.0169808,VALID,19.5093,VALID,120,VALID,1.14941,
2003-01-20, 02:25:01,VALID,917.795,VALID,0,VALID,95.3564,VALID,0,VALID,19.5456,VALID,128,VALID,0.85395,
2003-01-20, 02:26:00,VALID,917.78,VALID,0,VALID,95.2114,VALID,-0.0339617,VALID,19.5585,VALID,124,VALID,1.01931,
2003-01-20, 02:27:00,VALID,917.763,VALID,0,VALID,95.1122,VALID,0,VALID,19.5518,VALID,134,VALID,0.957559,
2003-01-20, 02:28:00,VALID,917.738,VALID,0,VALID,95.0486,VALID,0.0169808,VALID,19.5513,VALID,135,VALID,1.21608,
2003-01-20, 02:29:00,VALID,917.715,VALID,0,VALID,95.0435,VALID,0,VALID,19.5647,VALID,140,VALID,1.30382,
2003-01-20, 02:30:01,VALID,917.681,VALID,0,VALID,95.0448,VALID,0.0339617,VALID,19.568,VALID,104,VALID,0.813345,
2003-01-20, 02:31:00,VALID,917.66,VALID,0,VALID,94.9774,VALID,0.0509425,VALID,19.5516,VALID,114,VALID,1.46007,
2003-01-20, 02:32:01,VALID,917.643,VALID,0,VALID,94.9558,VALID,0.0339617,VALID,19.5682,VALID,115,VALID,1.45456,
2003-01-20, 02:33:01,VALID,917.626,VALID,0,VALID,94.8935,VALID,0.0509425,VALID,19.5712,VALID,117,VALID,1.52724,
2003-01-20, 02:34:01,VALID,917.607,VALID,0,VALID,94.8452,VALID,0.0509425,VALID,19.5608,VALID,127,VALID,0.960556,
2003-01-20, 02:35:00,VALID,917.598,VALID,0,VALID,94.7689,VALID,0.0679233,VALID,19.5642,VALID,118,VALID,1.05645,
2003-01-20, 02:36:01,VALID,917.585,VALID,0,VALID,94.7434,VALID,0.0169808,VALID,19.558,VALID,120,VALID,1.06209,
2003-01-20, 02:37:01,VALID,917.582,VALID,0,VALID,94.7562,VALID,0.0169808,VALID,19.5516,VALID,109,VALID,0.967748,
2003-01-20, 02:38:01,VALID,917.588,VALID,0,VALID,94.774,VALID,0.0339617,VALID,19.5449,VALID,128,VALID,0.798047,
2003-01-20, 02:39:00,VALID,917.574,VALID,0,VALID,94.8274,VALID,0.0169808,VALID,19.5357,VALID,118,VALID,0.648438,
2003-01-20, 02:40:01,VALID,917.569,VALID,0,VALID,94.9914,VALID,0,VALID,19.5195,VALID,146,VALID,1.08705,
2003-01-20, 02:41:01,VALID,917.554,VALID,0,VALID,95.0944,VALID,0.0169808,VALID,19.5063,VALID,134,VALID,0.76863,
2003-01-20, 02:42:01,VALID,917.536,VALID,0,VALID,95.13,VALID,0,VALID,19.4936,VALID,91,VALID,0.818142,
2003-01-20, 02:43:01,VALID,917.505,VALID,0,VALID,95.2254,VALID,0,VALID,19.4777,VALID,114,VALID,0.934544,
2003-01-20, 02:44:01,VALID,917.512,VALID,0,VALID,95.3093,VALID,0.0169808,VALID,19.4546,VALID,135,VALID,1.09235,
2003-01-20, 02:45:01,VALID,917.487,VALID,0,VALID,95.2813,VALID,0,VALID,19.4549,VALID,107,VALID,1.0403,
2003-01-20, 02:46:01,VALID,917.465,VALID,0,VALID,95.2762,VALID,0,VALID,19.4454,VALID,112,VALID,1.04091,
2003-01-20, 02:47:01,VALID,917.46,VALID,0,VALID,95.1554,VALID,0,VALID,19.4549,VALID,117,VALID,1.28083,
2003-01-20, 02:48:01,VALID,917.446,VALID,0,VALID,95.0105,VALID,0,VALID,19.468,VALID,120,VALID,0.974392,
2003-01-20, 02:49:01,VALID,917.454,VALID,0,VALID,94.8744,VALID,0,VALID,19.4916,VALID,133,VALID,1.05976,
2003-01-20, 02:50:01,VALID,917.47,VALID,0,VALID,94.7371,VALID,0.0169808,VALID,19.4974,VALID,116,VALID,1.10629,
2003-01-20, 02:51:01,VALID,917.488,VALID,0,VALID,94.5565,VALID,-0.0169808,VALID,19.5103,VALID,118,VALID,1.02103,
2003-01-20, 02:52:01,VALID,917.511,VALID,0,VALID,94.3467,VALID,0,VALID,19.52,VALID,144,VALID,0.897236,
2003-01-20, 02:53:01,VALID,917.532,VALID,0,VALID,94.2882,VALID,0,VALID,19.5359,VALID,148,VALID,0.477618,
2003-01-20, 02:54:01,VALID,917.551,VALID,0,VALID,94.2348,VALID,0,VALID,19.5521,VALID,146,VALID,0.83676,
2003-01-20, 02:55:01,VALID,917.558,VALID,0,VALID,94.217,VALID,0,VALID,19.558,VALID,139,VALID,0.78726,
2003-01-20, 02:56:01,VALID,917.558,VALID,0,VALID,94.2246,VALID,0.0169808,VALID,19.5839,VALID,141,VALID,1.0002,
2003-01-20, 02:57:01,VALID,917.554,VALID,0,VALID,94.2005,VALID,0.0169808,VALID,19.6038,VALID,160,VALID,0.993796,
2003-01-20, 02:58:01,VALID,917.53,VALID,0,VALID,93.9398,VALID,-0.0169808,VALID,19.6065,VALID,108,VALID,1.33368,
2003-01-20, 02:59:00,VALID,917.523,VALID,0,VALID,93.9627,VALID,0,VALID,19.6328,VALID,105,VALID,0.828547,
2003-01-20, 03:00:00,VALID,917.5,VALID,0,VALID,94.0898,VALID,-0.0339617,VALID,19.6234,VALID,106,VALID,0.786458,
2003-01-20, 03:01:00,VALID,917.514,VALID,0,VALID,94.1763,VALID,0,VALID,19.6266,VALID,116,VALID,0.711589,
2003-01-20, 03:02:00,VALID,917.497,VALID,0,VALID,94.2971,VALID,-0.0169808,VALID,19.6164,VALID,121,VALID,0.868215,
2003-01-20, 03:03:00,VALID,917.485,VALID,0,VALID,94.4357,VALID,0.0169808,VALID,19.5968,VALID,136,VALID,1.15728,
2003-01-20, 03:04:00,VALID,917.473,VALID,0,VALID,94.5018,VALID,0.0169808,VALID,19.5705,VALID,143,VALID,1.4069,
2003-01-20, 03:05:00,VALID,917.463,VALID,0,VALID,94.4815,VALID,0,VALID,19.5712,VALID,140,VALID,1.03951,
2003-01-20, 03:06:00,VALID,917.456,VALID,0,VALID,94.2399,VALID,0.0169808,VALID,19.5744,VALID,144,VALID,1.47142,
2003-01-20, 03:07:00,VALID,917.438,VALID,0,VALID,94.1623,VALID,0.0339617,VALID,19.5712,VALID,156,VALID,1.23438,
2003-01-20, 03:08:00,VALID,917.435,VALID,0,VALID,94.1038,VALID,-0.0169808,VALID,19.5881,VALID,155,VALID,0.986914,
2003-01-20, 03:09:00,VALID,917.441,VALID,0,VALID,94.1827,VALID,-0.118866,VALID,19.5896,VALID,149,VALID,0.936266,
2003-01-20, 03:10:00,VALID,917.442,VALID,0,VALID,94.2488,VALID,-0.101885,VALID,19.5757,VALID,133,VALID,1.05263,
2003-01-20, 03:11:00,VALID,917.438,VALID,0,VALID,94.2056,VALID,-0.101885,VALID,19.5665,VALID,145,VALID,0.769431,
2003-01-20, 03:12:00,VALID,917.435,VALID,0,VALID,94.1127,VALID,-0.101885,VALID,19.5535,VALID,134,VALID,0.949519,
2003-01-20, 03:13:00,VALID,917.426,VALID,0,VALID,94.0619,VALID,-0.101885,VALID,19.5433,VALID,120,VALID,0.620793,
2003-01-20, 03:14:00,VALID,917.431,VALID,0,VALID,94.0301,VALID,-0.101885,VALID,19.5371,VALID,141,VALID,0.861213,
2003-01-20, 03:15:00,VALID,917.398,VALID,0,VALID,94.0072,VALID,-0.118866,VALID,19.5244,VALID,130,VALID,0.934375,
2003-01-20, 03:16:00,VALID,917.39,VALID,0,VALID,93.9678,VALID,-0.118866,VALID,19.5277,VALID,138,VALID,1.04861,
2003-01-20, 03:17:00,VALID,917.354,VALID,0,VALID,93.9042,VALID,-0.118866,VALID,19.517,VALID,148,VALID,0.761502,
2003-01-20, 03:18:00,VALID,917.336,VALID,0,VALID,93.8838,VALID,-0.101885,VALID,19.5215,VALID,129,VALID,0.439823,
2003-01-20, 03:19:00,VALID,917.317,VALID,0,VALID,93.9233,VALID,-0.101885,VALID,19.5085,VALID,115,VALID,0.360197,
2003-01-20, 03:20:00,VALID,917.298,VALID,0,VALID,94.0402,VALID,-0.118866,VALID,19.476,VALID,146,VALID,0.838976,
2003-01-20, 03:21:00,VALID,917.297,VALID,0,VALID,94.1,VALID,-0.101885,VALID,19.4792,VALID,166,VALID,0.797297,
2003-01-20, 03:22:00,VALID,917.291,VALID,0,VALID,94.1051,VALID,-0.101885,VALID,19.47,VALID,150,VALID,0.907335,
2003-01-20, 03:23:00,VALID,917.308,VALID,0,VALID,94.1038,VALID,-0.0849042,VALID,19.4596,VALID,158,VALID,0.988692,
2003-01-20, 03:24:00,VALID,916.891,VALID,0,VALID,94.1102,VALID,-0.0509425,VALID,19.436,VALID,169,VALID,0.932644,
2003-01-20, 03:25:00,VALID,917.348,VALID,0,VALID,94.1153,VALID,0,VALID,19.4427,VALID,202,VALID,0.53811,
2003-01-20, 03:26:00,VALID,917.373,VALID,0,VALID,94.1191,VALID,0,VALID,19.4131,VALID,243,VALID,0.678516,
2003-01-20, 03:27:00,VALID,917.385,VALID,0,VALID,94.6799,VALID,-0.0169808,VALID,19.3485,VALID,257,VALID,0.749383,
2003-01-20, 03:28:00,VALID,917.4,VALID,0,VALID,95.35,VALID,0,VALID,19.2873,VALID,257,VALID,0.691301,
2003-01-20, 03:29:00,VALID,917.403,VALID,0,VALID,95.804,VALID,0,VALID,19.2197,VALID,242,VALID,0.795703,
2003-01-20, 03:30:00,VALID,917.403,VALID,0,VALID,96.2058,VALID,0,VALID,19.1514,VALID,244,VALID,0.562911,
2003-01-20, 03:31:00,VALID,917.402,VALID,0,VALID,96.4258,VALID,0,VALID,19.0999,VALID,243,VALID,0.218973,
2003-01-20, 03:32:00,VALID,917.396,VALID,0,VALID,96.5517,VALID,0.0169808,VALID,19.0679,VALID,215,VALID,0.203926,